1998-067NY

Last updated on Fri Mar 15 2019 00:02:07 GMT+0000 (Coordinated Universal Time)

1 43550U 98067NY 19073.46944409 .00016961 00000-0 19840-3 0 9995 2 43550 51.6363 104.6668 0003924 132.2962 227.8365 15.61686157 38108
UTC large
Height (km)
Speed (km/s)
/
Latitude / Longitude
Inclination (degrees)
Orbital Period (minutes)
Azimuth
Elevation
Range (km)
Doppler Factor

Next 0 passes for location: London (51.5072 / 0.1276)

Sorry there are no passes over London.
1998-067NY